Flag for Austria Weather past 2 weeks in Bischofshofen, Salzburg, Austria

Now
41 °F

Quite cool.


Feels Like: 41 °F
Forecast: 41 / 68 °F
Wind: 2 mph from North

Location: Salzburg-Flughafen

Current Time: Apr 21, 2015 at 3:50:25 AM

Latest Report: Apr 21, 2015 at 2:50 AM


Visibility: N/A

Pressure: 30.30 "Hg

Humidity: 81%

Dew point: 36 °F

Location of BischofshofenLocation

Historic Weather in Bischofshofen — Graph

°F

Bischofshofen temperature yesterday

Maximum temperature yesterday: 61 °F (at 3:20 PM)
Minimum temperature yesterday: 32 °F (at 4:20 AM)
Average temperature yesterday: 47 °F

Past Weeks' High & Low Weather Summary

 TemperatureHumidityPressure
High73 °F (Apr 15, 3:50 PM)100% (Apr 6, 2:20 AM)30.60 "Hg (Apr 6, 2:20 AM)
Low30 °F (Apr 19, 4:50 AM)17% (Apr 15, 4:20 PM)29.86 "Hg (Apr 17, 3:20 PM)
Average50 °F62%30.24 "Hg
* Reported Apr 6 2:20 AM — Apr 21 2:20 AM, Bischofshofen, Weather by CustomWeather, © 2015

Note: Actual official high and low records may vary slightly from our data, if they occured in-between our weather recording intervals... More about our weather records

Advertising

Bischofshofen weather history for previous 24 hours

 ConditionsComfort  
Time TempWeatherWind HumidityBarometerVisibility
2:20 AM
Tue, Apr 21
43 °FClear.2 mph81%30.30 "Hg10 mi
1:50 AM43 °FQuite cool.No wind81%30.30 "HgN/A
1:20 AM45 °FPassing clouds.1 mph76%30.27 "HgN/A
12:50 AM46 °FPassing clouds.2 mph71%30.27 "HgN/A
12:20 AM46 °FPassing clouds.5 mph71%30.27 "HgN/A
11:50 PM
Mon, Apr 20
45 °FPassing clouds.3 mph76%30.27 "HgN/A
11:20 PM46 °FPassing clouds.5 mph66%30.27 "HgN/A
10:50 PM48 °FPassing clouds.6 mph62%30.24 "HgN/A
10:20 PM48 °FPassing clouds.8 mph62%30.27 "HgN/A
9:50 PM48 °FPassing clouds.9 mph62%30.24 "HgN/A
9:20 PM50 °FClear.7 mph62%30.24 "Hg10 mi
8:50 PM52 °FPassing clouds.7 mph58%30.24 "HgN/A
8:20 PM52 °FPassing clouds.5 mph58%30.24 "HgN/A
7:50 PM57 °FPassing clouds.5 mph44%30.21 "HgN/A
7:20 PM57 °FPassing clouds.6 mph44%30.21 "HgN/A
6:50 PM59 °FPassing clouds.10 mph39%30.18 "HgN/A
6:20 PM59 °FPassing clouds.10 mph39%30.18 "HgN/A
5:50 PM61 °FPassing clouds.10 mph39%30.18 "HgN/A
5:20 PM59 °FPassing clouds.9 mph42%30.18 "HgN/A
4:50 PM59 °FPassing clouds.10 mph39%30.18 "HgN/A
4:20 PM61 °FPassing clouds.12 mph36%30.18 "HgN/A
3:50 PM59 °FPassing clouds.14 mph39%30.18 "HgN/A
3:20 PM61 °FPassing clouds.13 mph36%30.21 "HgN/A
2:50 PM59 °FPassing clouds.12 mph42%30.21 "HgN/A
2:20 PM59 °FPassing clouds.10 mph42%30.21 "HgN/A
1:50 PM57 °FPassing clouds.6 mph44%30.21 "HgN/A
1:20 PM57 °FPassing clouds.8 mph41%30.21 "HgN/A
12:50 PM57 °FPassing clouds.8 mph39%30.21 "HgN/A
12:20 PM55 °FScattered clouds.7 mph47%30.21 "HgN/A
11:50 AM55 °FScattered clouds.7 mph44%30.21 "HgN/A
11:20 AM54 °FPassing clouds.7 mph51%30.21 "HgN/A
10:50 AM52 °FPassing clouds.2 mph54%30.21 "HgN/A
10:20 AM50 °FSunny.1 mph54%30.21 "Hg10 mi
9:50 AM48 °FSunny.2 mph62%30.21 "Hg10 mi
9:20 AM48 °FSunny.2 mph62%30.21 "Hg10 mi
8:50 AM45 °FPassing clouds.3 mph76%30.21 "HgN/A
8:20 AM41 °FPassing clouds.5 mph81%30.24 "HgN/A
7:50 AM37 °FSunny.5 mph87%30.24 "Hg10 mi
7:20 AM36 °FSunny.2 mph87%30.21 "Hg10 mi
6:50 AM32 °FClear.1 mph93%30.21 "Hg10 mi
6:20 AM36 °FClear.2 mph87%30.18 "Hg10 mi
5:50 AM32 °FClear.1 mph100%30.18 "Hg10 mi
5:20 AM32 °FChilly.1 mph93%30.18 "HgN/A
4:50 AM34 °FChilly.3 mph93%30.18 "HgN/A
4:20 AM32 °FChilly.5 mph93%30.18 "HgN/A
3:50 AM34 °FChilly.2 mph93%30.18 "HgN/A
3:20 AM36 °FChilly.2 mph87%30.18 "HgN/A
Weather by CustomWeather, © 2015

See weather overviewHow to use our weather pages